Torna al catalogo

STARLINK-36731

AttivoComunicazioniVLEO
NORAD 68964·PAYLOAD·🇺🇸 United States

Lanciato May 1, 2026 da Cape Canaveral Space Force Station

Loading…

Prossimi Passaggi (prossime 24 ore)

TLE

AggiornatoSource: CelesTrak SupGP

Epoca: Sep 14, 2026, 21:07 UTC

1 68964C 26099P   26257.88034722 -.00038745  00000+0 -11448-2 0  2570
2 68964  53.1577 102.0209 0001345  82.5789 222.4834 15.34406494    15

Traccia STARLINK-36731 in tempo reale con AllMySat

Download on the App Store